Stations météo

réclame
Mon MeteoGroup
Kloevsjoehoejden, Suède (2325): Température de l'air & dewpoint: 18.01.2020 16:00:00 - 24.01.2020 16:00:00 (CET)Kloevsjoehoejden, Suède (2325): Vitesse du vent & gusts: 18.01.2020 16:00:00 - 24.01.2020 16:00:00 (CET)Kloevsjoehoejden, Suède (2325): Direction du vent: 18.01.2020 16:00:00 - 24.01.2020 16:00:00 (CET)Kloevsjoehoejden, Suède (2325): reduced air pressure: 18.01.2020 16:00:00 - 24.01.2020 16:00:00 (CET)Kloevsjoehoejden, Suède (2325): visibility: 18.01.2020 16:00:00 - 24.01.2020 16:00:00 (CET)Kloevsjoehoejden, Suède (2325): Quantités de précipitations: 18.01.2020 16:00:00 - 24.01.2020 16:00:00 (CET)
Date & Time tt [°C] td [°C] ff [km/h] ff [knt] fx [km/h] fx [knt] dd ppp [hPa] vv [km] rr [mm]
24.01.2020 16:00:00 -2,9 -8,6 32 18 54 29 WSW 997,5 50 0,0
24.01.2020 15:00:00 -3,0 -8,5 30 16 48 26 WSW 997,6 50 0,0
24.01.2020 14:00:00 -2,9 -7,6 26 14 47 25 WSW 998,4 50 0,0
24.01.2020 13:00:00 -2,5 -7,0 26 14 45 24 WSW 998,5 50 0,0
24.01.2020 12:00:00 -2,5 -6,3 22 12 43 23 SW 999,3 50 0,0
24.01.2020 11:00:00 -3,2 -6,5 27 15 48 26 WSW 1000,1 50 0,0
24.01.2020 10:00:00 -4,1 -7,9 29 16 46 25 W 1001,1 50 0,0
24.01.2020 09:00:00 -3,8 -7,4 33 18 55 30 W 1001,6 13 0,0
24.01.2020 08:00:00 -3,9 -6,2 24 13 42 23 W 1001,3 50 0,0
24.01.2020 07:00:00 -3,2 -6,5 26 14 - - W 1001,4 50 0,0
24.01.2020 06:00:00 -2,7 -5,8 24 13 47 25 W 1001,3 45 0,0
24.01.2020 05:00:00 -2,2 -3,6 21 11 40 21 W 1001,3 50 0,0
24.01.2020 04:00:00 -1,5 -1,9 21 11 39 21 W 1001,8 50 0,0
24.01.2020 03:00:00 -1,9 -2,3 21 11 41 22 W 1001,9 25 0,3
24.01.2020 02:00:00 -1,0 -2,1 28 15 42 23 W 1002,4 50 0,1
24.01.2020 01:00:00 -1,4 -1,5 20 11 39 21 WSW 1002,7 28 0,0
24.01.2020 00:00:00 -1,4 -1,5 23 13 35 19 WSW 1002,8 3,3 0,0
23.01.2020 23:00:00 -0,8 -1,2 24 13 36 19 W 1003,7 2,9 0,2
23.01.2020 22:00:00 -0,7 -1,8 23 12 40 22 W 1003,7 50 0,0
23.01.2020 21:00:00 -0,5 -1,8 28 15 49 26 W 1004,4 34 0,0
23.01.2020 20:00:00 -0,7 -1,5 27 15 40 21 WSW 1004,7 22 0,0
23.01.2020 19:00:00 0,4 -3,5 22 12 46 25 WSW 1004,5 50 0,0
23.01.2020 18:00:00 0,9 -3,8 27 14 50 27 WSW 1004,5 50 0,0
23.01.2020 17:00:00 0,8 -4,0 25 14 42 23 WSW 1004,6 50 0,0
23.01.2020 16:00:00 0,6 -3,9 27 15 - - WSW 1005,1 50 0,0
23.01.2020 15:00:00 -0,6 -4,8 26 14 45 24 WSW 1006,8 50 0,0
23.01.2020 14:00:00 -0,8 -5,6 27 14 44 24 WSW 1007,6 50 0,0
23.01.2020 13:00:00 -1,1 -5,9 29 16 50 27 WSW 1007,8 50 0,0
23.01.2020 12:00:00 -1,8 -6,2 15 8 41 22 SSW 1009,2 50 0,0
23.01.2020 11:00:00 -2,6 -6,8 22 12 36 19 SW 1010,2 50 0,0
23.01.2020 10:00:00 -3,0 -7,0 23 12 38 20 WSW 1011,5 50 0,0
23.01.2020 09:00:00 -2,8 -6,8 23 12 34 19 WSW 1011,7 50 0,0
23.01.2020 08:00:00 -2,5 -5,6 22 12 32 17 WSW 1012,5 50 0,0
23.01.2020 07:00:00 -3,2 -5,7 19 10 41 22 SW 1013,6 50 0,0
23.01.2020 06:00:00 -3,6 -6,4 27 14 39 21 WSW 1015,4 48 0,0
23.01.2020 05:00:00 -4,1 -7,5 22 12 - - SW 1017,0 50 0,0
23.01.2020 04:00:00 -4,2 -6,7 20 11 34 19 WSW 1018,6 50 0,0
23.01.2020 03:00:00 -4,7 -5,2 11 6 31 17 SW 1020,6 7 0,4
23.01.2020 02:00:00 -4,4 -5,5 18 10 40 22 W 1022,3 2,2 0,1
23.01.2020 01:00:00 -3,8 -6,9 27 15 40 22 W 1022,7 50 0,0
23.01.2020 00:00:00 -4,0 -7,4 9 5 34 19 W 1023,9 43 0,0
22.01.2020 23:00:00 -4,7 -7,6 11 6 34 18 WSW 1024,9 50 0,0
22.01.2020 22:00:00 -4,8 -7,9 18 10 - - W 1025,4 50 0,0
22.01.2020 21:00:00 -4,7 -7,9 27 15 43 23 W 1024,9 50 0,0
22.01.2020 20:00:00 -4,4 -7,2 20 11 49 26 W 1025,9 50 0,0
22.01.2020 19:00:00 -4,2 -6,8 31 17 50 27 W 1025,2 29 0,0
22.01.2020 18:00:00 -3,9 -6,8 28 15 54 29 W 1024,8 50 0,0
22.01.2020 17:00:00 -3,5 -6,6 31 17 49 27 WNW 1024,2 50 0,0
22.01.2020 16:00:00 -3,5 -6,3 28 15 45 25 WNW 1024,0 50 0,0
22.01.2020 15:00:00 -3,1 -6,7 23 12 48 26 W 1024,0 50 0,0
22.01.2020 14:00:00 -2,8 -6,4 32 17 55 30 NW 1023,2 50 0,0
22.01.2020 13:00:00 -2,1 -5,9 27 14 50 27 NW 1022,5 50 0,0
22.01.2020 12:00:00 -1,8 -5,0 28 15 60 33 NW 1021,9 50 0,0
22.01.2020 11:00:00 -2,0 -5,3 37 20 66 35 NW 1020,6 50 0,0
22.01.2020 10:00:00 -2,1 -5,2 35 19 65 35 NNW 1019,4 50 0,0
22.01.2020 09:00:00 -2,8 -4,2 37 20 76 41 NNW 1018,1 26 0,1
22.01.2020 08:00:00 -2,8 -3,6 39 21 77 42 NNW 1016,6 1,0 0,0
22.01.2020 07:00:00 -3,5 -4,2 44 24 84 46 WNW 1014,2 0,5 0,2
22.01.2020 06:00:00 -3,6 -6,2 51 28 86 46 WNW 1012,9 10 0,0
22.01.2020 05:00:00 -4,1 -7,0 55 30 92 50 WNW 1011,4 10 0,0
22.01.2020 04:00:00 -4,1 -6,9 53 28 87 47 WNW 1011,4 9 0,0
22.01.2020 03:00:00 -4,2 -7,0 52 28 87 47 WNW 1010,8 4,4 0,0
22.01.2020 02:00:00 -4,4 -5,9 45 24 81 44 WNW 1010,5 3,8 0,0
22.01.2020 01:00:00 -4,0 -4,8 39 21 79 42 WNW 1010,9 0,8 0,3
22.01.2020 00:00:00 -3,8 -4,9 34 18 61 33 WNW 1011,3 1,6 0,0
21.01.2020 23:00:00 -3,1 -4,5 39 21 66 36 WNW 1011,2 4,0 0,0
21.01.2020 22:00:00 -2,9 -4,2 41 22 72 39 WNW 1010,7 2,6 0,0
21.01.2020 21:00:00 -2,8 -4,8 41 22 66 36 WNW 1010,1 10 0,1
21.01.2020 20:00:00 -2,0 -3,6 35 19 63 34 WNW 1010,5 17 0,1
21.01.2020 19:00:00 -2,6 -4,6 39 21 62 33 W 1010,5 10 0,0
21.01.2020 18:00:00 -2,9 -5,5 37 20 65 35 W 1011,5 50 0,0
21.01.2020 17:00:00 -1,8 -5,1 43 23 75 40 WNW 1012,0 50 0,0
21.01.2020 16:00:00 -2,0 -5,0 45 24 91 49 W 1012,0 22 0,0
21.01.2020 15:00:00 -1,6 -5,4 49 26 77 42 W 1013,1 44 0,0
21.01.2020 14:00:00 -1,6 -5,8 45 25 76 41 W 1013,5 29 0,0
21.01.2020 13:00:00 -1,6 -6,7 52 28 78 42 W 1014,0 7 0,0
21.01.2020 12:00:00 -1,8 -6,5 45 25 83 45 W 1014,4 29 0,0
21.01.2020 11:00:00 -2,2 -6,2 53 28 86 47 W 1014,5 12 0,0
21.01.2020 10:00:00 -2,4 -6,6 52 28 91 49 WNW 1013,6 21 0,0
21.01.2020 09:00:00 -2,3 -6,7 57 31 92 50 WNW 1012,4 13 0,0
21.01.2020 08:00:00 -2,3 -6,8 47 25 95 51 WNW 1012,5 50 0,0
21.01.2020 07:00:00 -1,7 -6,4 55 30 86 47 W 1011,8 30 0,0
21.01.2020 06:00:00 -1,7 -6,6 38 20 72 39 WNW 1013,0 50 0,0
21.01.2020 05:00:00 -1,0 -3,8 36 19 63 34 W 1012,3 50 0,0
21.01.2020 04:00:00 -0,5 -4,0 33 18 55 30 W 1012,7 50 0,0
21.01.2020 03:00:00 0,4 -2,0 35 19 61 33 NW 1012,9 12 0,0
21.01.2020 02:00:00 2,5 -0,3 29 16 64 34 WNW 1012,2 50 0,0
21.01.2020 01:00:00 3,0 1,8 31 17 53 28 W 1011,2 9 0,1
21.01.2020 00:00:00 3,0 2,4 32 18 52 28 W 1010,8 50 0,0
20.01.2020 23:00:00 3,6 2,3 38 21 72 39 W 1010,8 35 0,0
20.01.2020 22:00:00 3,7 2,4 43 23 63 34 W 1011,4 41 0,0
20.01.2020 21:00:00 3,6 2,0 33 18 62 34 W 1012,6 9 0,3
20.01.2020 20:00:00 - 0,7 39 21 65 35 WSW 1011,2 50 0,0
20.01.2020 19:00:00 - 0,8 35 19 66 36 W 1011,9 50 0,0
20.01.2020 18:00:00 - 0,9 36 19 55 30 WSW 1012,5 50 0,0
20.01.2020 17:00:00 4,4 0,7 35 19 66 36 WSW 1013,3 50 0,0
20.01.2020 16:00:00 - 0,7 43 23 80 43 W 1014,0 50 0,0
20.01.2020 15:00:00 4,3 0,3 46 25 74 40 WSW 1014,1 50 0,0
20.01.2020 14:00:00 3,6 -0,4 39 21 61 33 WSW 1015,8 50 0,0
20.01.2020 13:00:00 2,3 -1,1 35 19 59 32 WSW 1017,6 40 0,0
20.01.2020 12:00:00 1,7 -2,1 35 19 55 30 WSW 1018,6 50 0,0
20.01.2020 11:00:00 1,6 -2,4 23 12 43 23 WSW 1020,1 50 0,0
20.01.2020 10:00:00 0,4 -3,0 25 13 44 24 WSW 1021,0 50 0,0
20.01.2020 09:00:00 -0,1 -3,5 26 14 45 24 WSW 1021,6 50 0,0
20.01.2020 08:00:00 -0,3 -3,5 26 14 51 28 WSW 1021,8 50 0,0
20.01.2020 07:00:00 -0,9 -3,7 30 16 53 29 WSW 1021,9 50 0,0
20.01.2020 06:00:00 -1,1 -3,6 37 20 56 30 WSW 1021,7 50 0,0
20.01.2020 05:00:00 -1,1 -3,6 34 18 55 30 WSW 1022,0 13 0,0
20.01.2020 04:00:00 -1,6 -3,9 20 11 56 31 SW 1022,9 50 0,0
20.01.2020 03:00:00 -1,7 -3,3 32 17 54 29 WSW 1024,0 39 0,0
20.01.2020 02:00:00 -2,7 -3,2 34 18 53 28 WSW 1025,4 7 0,2
20.01.2020 01:00:00 -1,8 -6,4 31 17 48 26 WSW 1025,6 16 0,0
20.01.2020 00:00:00 -2,5 -6,9 29 16 44 24 WSW 1026,6 47 0,1
19.01.2020 23:00:00 -2,6 -8,1 29 16 44 24 W 1027,2 50 0,0
19.01.2020 22:00:00 -2,6 -6,6 23 12 43 23 WSW 1027,6 44 0,0
19.01.2020 21:00:00 -2,2 -6,2 28 15 42 23 W 1027,8 45 0,0
19.01.2020 20:00:00 -2,9 -6,2 24 13 41 22 WNW 1028,4 37 0,0
19.01.2020 19:00:00 -3,4 -6,8 30 16 44 24 W 1028,5 50 0,0
19.01.2020 18:00:00 -2,9 -7,6 24 13 51 27 WNW 1028,3 46 0,0
19.01.2020 17:00:00 -2,3 -7,4 38 21 65 35 WNW 1027,1 50 0,0
19.01.2020 16:00:00 -2,3 -7,0 37 20 72 39 W 1026,6 38 0,0
19.01.2020 15:00:00 -2,3 -6,7 42 23 75 40 WNW 1024,9 50 0,0
19.01.2020 14:00:00 -2,1 -5,6 42 23 72 39 WNW 1023,9 37 0,0
19.01.2020 13:00:00 -1,3 -5,7 42 23 68 37 WNW 1022,3 28 0,0
19.01.2020 12:00:00 -0,9 -5,7 37 20 67 36 WNW 1021,2 49 0,0
19.01.2020 11:00:00 -1,3 -5,3 40 22 79 42 WNW 1019,4 20 0,0
19.01.2020 10:00:00 -1,3 -4,8 46 25 82 44 WNW 1018,0 30 0,0
19.01.2020 09:00:00 -1,4 -4,6 45 24 86 47 WNW 1016,2 50 0,0
19.01.2020 08:00:00 -1,0 -3,7 55 30 90 49 WNW 1014,3 2,5 0,0
19.01.2020 07:00:00 -0,7 -3,6 43 23 92 50 WNW 1013,3 5 0,0
19.01.2020 06:00:00 -1,0 -3,5 37 20 65 35 W 1012,4 12 0,0
19.01.2020 05:00:00 -1,5 -3,7 40 22 61 33 W 1011,3 10 0,0
19.01.2020 04:00:00 -1,9 -4,6 39 21 58 31 W 1010,3 11 0,0
19.01.2020 03:00:00 -2,1 -5,4 31 17 49 26 W 1010,2 38 0,0
19.01.2020 02:00:00 -2,1 -5,6 31 17 52 28 W 1009,1 42 0,0
19.01.2020 01:00:00 -1,8 -5,5 32 17 47 26 W 1007,9 33 0,0
19.01.2020 00:00:00 -1,5 -5,4 28 15 43 23 WNW 1006,9 43 0,0
18.01.2020 23:00:00 -0,7 -5,3 27 15 42 23 WNW 1006,1 50 0,0
18.01.2020 22:00:00 -1,1 -5,1 18 10 35 19 NW 1005,7 50 0,0
18.01.2020 21:00:00 -0,7 -4,9 19 10 - - NNW 1005,1 50 0,0
18.01.2020 20:00:00 -0,7 -3,1 20 11 32 17 NW 1004,3 50 0,0
18.01.2020 19:00:00 -0,9 -1,3 11 6 29 15 NNW 1003,4 50 0,1
18.01.2020 18:00:00 -0,9 -0,9 16 9 27 15 NW 1002,8 2,1 0,4
18.01.2020 17:00:00 -1,5 -1,8 9 5 17 9 NW 1002,5 3,1 0,1
18.01.2020 16:00:00 -0,7 -2,0 9 5 24 13 WNW 1001,7 50 0,0

tt = Température de l'air
td = dewpoint
ff = Vitesse du vent
fx = gusts
dd = Direction du vent
ppp = reduced air pressure
vv = visibility
rr = Quantités de précipitations

stations d'obs. à proximité